Time,TemperatureF,DewpointF,PressureIn,WindDirection,WindDirectionDegrees,WindSpeedMPH,WindSpeedGustMPH,Humidity,HourlyPrecipIn,Conditions,Clouds,dailyrainin,SoftwareType,DateUTC
2013-01-18 11:00:00,53.0,43.5,30.11,NNW,338,0.0,0.0,70,0.00,,,-99.99,Weather View 32 v70,2013-01-18 19:00:00,
2013-01-18 11:20:00,57.0,44.1,30.11,NNE,22,0.0,1.0,62,0.00,,,-99.99,Weather View 32 v70,2013-01-18 19:20:00,
2013-01-18 11:35:00,57.0,44.1,30.11,NNE,22,0.0,5.0,62,0.00,,,-99.99,Weather View 32 v70,2013-01-18 19:35:00,
2013-01-18 11:50:00,59.0,44.7,30.10,NNE,22,0.0,5.0,59,0.00,,,-99.99,Weather View 32 v70,2013-01-18 19:50:00,
2013-01-18 12:00:00,59.0,44.7,30.10,NNE,22,0.0,5.0,59,0.00,,,-99.99,Weather View 32 v70,2013-01-18 20:00:00,
2013-01-18 12:05:00,58.0,42.4,30.10,NNE,22,0.0,5.0,56,0.00,,,-99.99,Weather View 32 v70,2013-01-18 20:05:00,
2013-01-18 12:20:00,60.0,43.7,30.10,NNE,22,0.0,37.0,55,0.00,,,-99.99,Weather View 32 v70,2013-01-18 20:20:00,
2013-01-18 12:35:00,60.0,43.3,30.10,NNE,22,0.0,37.0,54,0.00,,,-99.99,Weather View 32 v70,2013-01-18 20:35:00,
2013-01-18 12:50:00,60.0,42.8,30.09,North,0,0.0,37.0,53,0.00,,,-99.99,Weather View 32 v70,2013-01-18 20:50:00,
2013-01-18 13:01:00,60.0,42.8,30.09,North,0,0.0,37.0,53,0.00,,,-99.99,Weather View 32 v70,2013-01-18 21:01:00,
2013-01-18 13:05:00,61.0,43.2,30.09,North,0,0.0,37.0,52,0.00,,,-99.99,Weather View 32 v70,2013-01-18 21:05:00,
2013-01-18 13:20:00,63.0,44.0,30.10,North,0,4.0,5.0,50,0.00,,,-99.99,Weather View 32 v70,2013-01-18 21:20:00,
2013-01-18 13:35:00,63.0,43.5,30.10,North,0,1.0,8.0,49,0.00,,,-99.99,Weather View 32 v70,2013-01-18 21:35:00,
2013-01-18 13:50:00,62.0,43.1,30.10,North,0,0.0,8.0,50,0.00,,,-99.99,Weather View 32 v70,2013-01-18 21:50:00,
2013-01-18 14:01:00,62.0,43.1,30.10,North,0,0.0,8.0,50,0.00,,,-99.99,Weather View 32 v70,2013-01-18 22:01:00,
2013-01-18 14:05:00,63.0,44.5,30.11,NNE,22,0.0,8.0,51,0.00,,,-99.99,Weather View 32 v70,2013-01-18 22:05:00,
2013-01-18 14:20:00,62.0,43.6,30.11,NNE,22,0.0,8.0,51,0.00,,,-99.99,Weather View 32 v70,2013-01-18 22:20:00,
2013-01-18 14:35:00,62.0,42.6,30.12,North,0,0.0,8.0,49,0.00,,,-99.99,Weather View 32 v70,2013-01-18 22:35:00,
2013-01-18 14:50:00,63.0,43.0,30.13,North,0,0.0,8.0,48,0.00,,,-99.99,Weather View 32 v70,2013-01-18 22:50:00,
2013-01-18 15:02:00,63.0,43.0,30.13,North,0,0.0,8.0,48,0.00,,,-99.99,Weather View 32 v70,2013-01-18 23:02:00,
2013-01-18 15:05:00,63.0,42.4,30.13,North,0,0.0,7.0,47,0.00,,,-99.99,Weather View 32 v70,2013-01-18 23:05:00,
2013-01-18 15:20:00,63.0,40.7,30.13,North,0,0.0,6.0,44,0.00,,,-99.99,Weather View 32 v70,2013-01-18 23:20:00,
2013-01-18 15:35:00,64.0,41.6,30.14,NNE,22,0.0,6.0,44,0.00,,,-99.99,Weather View 32 v70,2013-01-18 23:35:00,
2013-01-18 15:50:00,62.0,40.9,30.14,North,0,0.0,6.0,46,0.00,,,-99.99,Weather View 32 v70,2013-01-18 23:50:00,
2013-01-18 16:03:00,62.0,40.9,30.14,North,0,0.0,6.0,46,0.00,,,-99.99,Weather View 32 v70,2013-01-19 00:03:00,
2013-01-18 16:05:00,61.0,40.6,30.14,North,0,0.0,5.0,47,0.00,,,-99.99,Weather View 32 v70,2013-01-19 00:05:00,
2013-01-18 16:20:00,61.0,40.0,30.14,North,0,0.0,5.0,46,0.00,,,-99.99,Weather View 32 v70,2013-01-19 00:20:00,
2013-01-18 16:35:00,61.0,40.0,30.14,NW,315,0.0,5.0,46,0.00,,,-99.99,Weather View 32 v70,2013-01-19 00:35:00,
2013-01-18 16:50:00,61.0,39.5,30.14,North,0,0.0,5.0,45,0.00,,,-99.99,Weather View 32 v70,2013-01-19 00:50:00,
2013-01-18 17:03:00,61.0,39.5,30.14,North,0,0.0,5.0,45,0.00,,,-99.99,Weather View 32 v70,2013-01-19 01:03:00,
2013-01-18 17:05:00,61.0,39.5,30.14,North,0,0.0,2.0,45,0.00,,,-99.99,Weather View 32 v70,2013-01-19 01:05:00,
2013-01-18 17:20:00,60.0,38.5,30.14,North,0,0.0,2.0,45,0.00,,,-99.99,Weather View 32 v70,2013-01-19 01:20:00,
2013-01-18 17:35:00,59.0,39.3,30.14,North,0,0.0,2.0,48,0.00,,,-99.99,Weather View 32 v70,2013-01-19 01:35:00,
2013-01-18 17:50:00,56.0,39.6,30.14,NW,315,0.0,1.0,54,0.00,,,-99.99,Weather View 32 v70,2013-01-19 01:50:00,
2013-01-18 18:04:00,56.0,39.6,30.14,NW,315,0.0,1.0,54,0.00,,,-99.99,Weather View 32 v70,2013-01-19 02:04:00,
2013-01-18 18:05:00,55.0,40.0,30.12,ENE,68,0.0,0.0,57,0.00,,,-99.99,Weather View 32 v70,2013-01-19 02:05:00,
2013-01-18 18:20:00,56.0,40.0,30.12,North,0,0.0,0.0,55,0.00,,,-99.99,Weather View 32 v70,2013-01-19 02:20:00,
2013-01-18 18:35:00,58.0,39.9,30.12,North,0,0.0,0.0,51,0.00,,,-99.99,Weather View 32 v70,2013-01-19 02:35:00,
2013-01-18 18:50:00,58.0,39.4,30.12,NNE,22,0.0,0.0,50,0.00,,,-99.99,Weather View 32 v70,2013-01-19 02:50:00,
2013-01-18 19:04:00,58.0,39.4,30.12,NNE,22,0.0,0.0,50,0.00,,,-99.99,Weather View 32 v70,2013-01-19 03:04:00,
2013-01-18 19:05:00,57.0,38.0,30.12,NNE,22,0.0,0.0,49,0.00,,,-99.99,Weather View 32 v70,2013-01-19 03:05:00,
2013-01-18 19:20:00,54.0,38.6,30.12,NNE,22,0.0,0.0,56,0.00,,,-99.99,Weather View 32 v70,2013-01-19 03:20:00,
2013-01-18 19:35:00,50.0,38.3,30.12,NNW,338,0.0,0.0,64,0.00,,,-99.99,Weather View 32 v70,2013-01-19 03:35:00,
2013-01-18 19:50:00,48.0,37.9,30.11,NNE,22,0.0,0.0,68,0.00,,,-99.99,Weather View 32 v70,2013-01-19 03:50:00,
2013-01-18 20:05:00,48.0,39.0,30.11,NNE,22,0.0,0.0,71,0.00,,,-99.99,Weather View 32 v70,2013-01-19 04:05:00,
2013-01-18 20:20:00,47.0,38.4,30.10,NNE,22,0.0,0.0,72,0.00,,,-99.99,Weather View 32 v70,2013-01-19 04:20:00,
2013-01-18 20:35:00,46.0,37.5,30.10,NNE,22,0.0,0.0,72,0.00,,,-99.99,Weather View 32 v70,2013-01-19 04:35:00,
2013-01-18 20:50:00,45.0,37.5,30.10,NW,315,0.0,0.0,75,0.00,,,-99.99,Weather View 32 v70,2013-01-19 04:50:00,
2013-01-18 21:05:00,44.0,37.2,30.10,NNW,338,0.0,0.0,77,0.00,,,-99.99,Weather View 32 v70,2013-01-19 05:05:00,
2013-01-18 21:20:00,44.0,37.6,30.10,North,0,0.0,0.0,78,0.00,,,-99.99,Weather View 32 v70,2013-01-19 05:20:00,
2013-01-18 21:35:00,44.0,37.9,30.10,North,0,0.0,0.0,79,0.00,,,-99.99,Weather View 32 v70,2013-01-19 05:35:00,
2013-01-18 21:50:00,43.0,36.9,30.09,NNE,22,0.0,0.0,79,0.00,,,-99.99,Weather View 32 v70,2013-01-19 05:50:00,
2013-01-18 22:05:00,43.0,37.6,30.09,NNE,22,0.0,0.0,81,0.00,,,-99.99,Weather View 32 v70,2013-01-19 06:05:00,
2013-01-18 22:20:00,43.0,37.9,30.09,ENE,68,0.0,0.0,82,0.00,,,-99.99,Weather View 32 v70,2013-01-19 06:20:00,
2013-01-18 22:35:00,43.0,37.6,30.09,NNE,22,0.0,0.0,81,0.00,,,-99.99,Weather View 32 v70,2013-01-19 06:35:00,
2013-01-18 22:50:00,43.0,37.6,30.10,NNE,22,0.0,0.0,81,0.00,,,-99.99,Weather View 32 v70,2013-01-19 06:50:00,
2013-01-18 23:05:00,43.0,37.9,30.09,North,0,0.0,0.0,82,0.00,,,-99.99,Weather View 32 v70,2013-01-19 07:05:00,
2013-01-18 23:06:00,43.0,37.9,30.09,North,0,0.0,0.0,82,0.00,,,-99.99,Weather View 32 v70,2013-01-19 07:06:00,
2013-01-18 23:20:00,43.0,37.9,30.09,NNE,22,0.0,0.0,82,0.00,,,-99.99,Weather View 32 v70,2013-01-19 07:20:00,
2013-01-18 23:35:00,42.0,37.2,30.09,NNE,22,0.0,0.0,83,0.00,,,-99.99,Weather View 32 v70,2013-01-19 07:35:00,
2013-01-18 23:50:00,42.0,37.2,30.09,NNE,22,0.0,0.0,83,0.00,,,-99.99,Weather View 32 v70,2013-01-19 07:50:00,